CFG4MF EDDF-LPMA

Flight info

Callsign CFG4MF
Flight time 3h 45m
Altitude 35000
Route ANEKI2L ANEKI Y163 HERBI Y164 MOPAN DCT LUTIX DCT BENOT DCT NEMOS DCT NINTU DCT MEBAK DCT REPSI DCT LERGA DCT MINSO DCT NARAK DCT AGN DCT LATEK DCT PPN DCT MIRPO DCT DGO DCT NEA DCT ARDID DCT GANSU DCT NARTA DCT RAKUN
Aircraft A321/M-SDE3FGHIRWY/LB1

Departure

Time 2026-04-16 09:58
Airport Frankfurt Main Airport (EDDF)

Arrival

Time 2026-04-16 13:43
Airport Cristiano Ronaldo International Airport (LPMA)
Time Latitude Longitude Altitude Speed Heading
2026-04-16 09:04 50.04737 8.56736 361 ft 0 kts 115°
2026-04-16 09:44 50.04742 8.56718 364 ft 4 kts 107°
2026-04-16 09:44 50.04751 8.56682 360 ft 4 kts 131°
2026-04-16 09:44 50.04769 8.56667 363 ft 4 kts 195°
2026-04-16 09:45 50.04791 8.56680 361 ft 1 kts 205°
2026-04-16 09:48 50.04790 8.56680 361 ft 1 kts 205°
2026-04-16 09:48 50.04771 8.56666 363 ft 5 kts 206°
2026-04-16 09:48 50.04736 8.56614 360 ft 9 kts 236°
2026-04-16 09:48 50.04708 8.56507 358 ft 12 kts 249°
2026-04-16 09:49 50.04681 8.56398 364 ft 10 kts 249°
2026-04-16 09:49 50.04659 8.56305 358 ft 8 kts 249°
2026-04-16 09:49 50.04641 8.56229 361 ft 7 kts 250°
2026-04-16 09:49 50.04626 8.56167 362 ft 6 kts 250°
2026-04-16 09:50 50.04608 8.56090 363 ft 10 kts 250°
2026-04-16 09:50 50.04584 8.55991 363 ft 9 kts 249°
2026-04-16 09:50 50.04543 8.55938 360 ft 7 kts 209°
2026-04-16 09:50 50.04498 8.55910 357 ft 6 kts 199°
2026-04-16 09:51 50.04457 8.55892 364 ft 8 kts 192°
2026-04-16 09:51 50.04380 8.55908 361 ft 14 kts 160°
2026-04-16 09:51 50.04280 8.55962 357 ft 15 kts 169°
2026-04-16 09:51 50.04213 8.55829 354 ft 19 kts 250°
2026-04-16 09:52 50.04167 8.55640 361 ft 18 kts 249°
2026-04-16 09:52 50.04124 8.55459 358 ft 17 kts 249°
2026-04-16 09:52 50.04086 8.55298 354 ft 15 kts 249°
2026-04-16 09:52 50.04051 8.55152 359 ft 13 kts 249°
2026-04-16 09:53 50.04015 8.55003 356 ft 17 kts 249°
2026-04-16 09:53 50.03970 8.54815 355 ft 19 kts 250°
2026-04-16 09:53 50.03924 8.54622 354 ft 19 kts 249°
2026-04-16 09:53 50.03879 8.54433 355 ft 19 kts 249°
2026-04-16 09:54 50.03814 8.54266 348 ft 18 kts 238°
2026-04-16 09:54 50.03769 8.54096 348 ft 16 kts 250°
2026-04-16 09:54 50.03731 8.53935 348 ft 15 kts 249°
2026-04-16 09:54 50.03693 8.53779 346 ft 15 kts 249°
2026-04-16 09:55 50.03655 8.53621 347 ft 16 kts 248°
2026-04-16 09:55 50.03615 8.53461 339 ft 16 kts 249°
2026-04-16 09:55 50.03576 8.53301 335 ft 16 kts 249°
2026-04-16 09:55 50.03536 8.53135 338 ft 17 kts 250°
2026-04-16 09:56 50.03495 8.52961 336 ft 17 kts 249°
2026-04-16 09:56 50.03449 8.52794 335 ft 16 kts 248°
2026-04-16 09:56 50.03411 8.52637 333 ft 10 kts 249°
2026-04-16 09:56 50.03365 8.52595 333 ft 8 kts 180°
2026-04-16 09:57 50.03353 8.52596 335 ft 5 kts 178°
2026-04-16 09:57 50.03064 8.52598 335 ft 78 kts 179°
2026-04-16 09:57 50.02313 8.52608 332 ft 135 kts 179°
2026-04-16 09:57 50.01217 8.52619 396 ft 174 kts 180°
2026-04-16 09:58 50.00020 8.52641 1060 ft 171 kts 179°
2026-04-16 09:58 49.98824 8.52719 1717 ft 173 kts 180°
2026-04-16 09:58 49.97585 8.52813 1964 ft 185 kts 179°
2026-04-16 09:58 49.96247 8.52905 2093 ft 201 kts 180°
2026-04-16 09:59 49.94788 8.53006 2238 ft 218 kts 178°
2026-04-16 09:59 49.93236 8.53115 2623 ft 225 kts 179°
2026-04-16 09:59 49.91659 8.53224 3131 ft 228 kts 179°
2026-04-16 09:59 49.90066 8.53336 3691 ft 230 kts 179°
2026-04-16 10:00 49.88461 8.53447 4266 ft 230 kts 180°
2026-04-16 10:00 49.86857 8.53554 4805 ft 231 kts 180°
2026-04-16 10:00 49.85263 8.53660 5329 ft 233 kts 180°
2026-04-16 10:01 49.81976 8.53878 6266 ft 239 kts 180°
2026-04-16 10:01 49.80308 8.53989 6751 ft 242 kts 180°
2026-04-16 10:01 49.78614 8.54104 7209 ft 244 kts 180°
2026-04-16 10:01 49.76900 8.53982 7516 ft 255 kts 187°
2026-04-16 10:02 49.75052 8.53733 7729 ft 274 kts 187°
2026-04-16 10:02 49.73125 8.53474 8219 ft 280 kts 187°
2026-04-16 10:02 49.71165 8.53214 8795 ft 284 kts 187°
2026-04-16 10:02 49.69204 8.52955 9364 ft 288 kts 187°
2026-04-16 10:03 49.67200 8.52691 9958 ft 291 kts 187°
2026-04-16 10:03 49.65160 8.52421 10422 ft 299 kts 186°
2026-04-16 10:03 49.63020 8.52135 10545 ft 318 kts 186°
2026-04-16 10:03 49.60748 8.51830 10673 ft 336 kts 186°
2026-04-16 10:04 49.58357 8.51510 10839 ft 352 kts 186°
2026-04-16 10:04 49.55894 8.51188 11276 ft 358 kts 186°
2026-04-16 10:04 49.53403 8.50867 11796 ft 361 kts 186°
2026-04-16 10:04 49.50888 8.50544 12340 ft 364 kts 187°
2026-04-16 10:05 49.48351 8.50219 12892 ft 367 kts 187°
2026-04-16 10:05 49.45793 8.49886 13445 ft 369 kts 187°
2026-04-16 10:05 49.43221 8.49549 13996 ft 372 kts 187°
2026-04-16 10:05 49.40634 8.49207 14475 ft 375 kts 187°
2026-04-16 10:06 49.38027 8.48861 14950 ft 377 kts 187°
2026-04-16 10:06 49.35406 8.48514 15437 ft 379 kts 187°
2026-04-16 10:06 49.32766 8.48170 15913 ft 382 kts 187°
2026-04-16 10:06 49.30114 8.47825 16384 ft 384 kts 188°
2026-04-16 10:07 49.27440 8.47479 16849 ft 386 kts 188°
2026-04-16 10:07 49.24749 8.47131 17305 ft 389 kts 188°
2026-04-16 10:07 49.22051 8.46779 17754 ft 391 kts 188°
2026-04-16 10:07 49.19332 8.46424 18182 ft 393 kts 188°
2026-04-16 10:08 49.16635 8.46072 18594 ft 396 kts 188°
2026-04-16 10:08 49.13883 8.45716 18955 ft 398 kts 188°
2026-04-16 10:08 49.11107 8.45359 19317 ft 400 kts 188°
2026-04-16 10:08 49.08324 8.45003 19674 ft 402 kts 188°
2026-04-16 10:09 49.05544 8.44473 20018 ft 402 kts 195°
2026-04-16 10:09 49.02815 8.43529 20369 ft 403 kts 197°
2026-04-16 10:09 49.00071 8.42565 20745 ft 405 kts 197°
2026-04-16 10:09 48.97314 8.41597 21071 ft 408 kts 197°
2026-04-16 10:10 48.94546 8.40629 21426 ft 410 kts 197°
2026-04-16 10:10 48.91756 8.39655 21787 ft 412 kts 197°
2026-04-16 10:10 48.88949 8.38675 22141 ft 414 kts 197°
2026-04-16 10:10 48.86134 8.37696 22488 ft 417 kts 197°
2026-04-16 10:11 48.83299 8.36716 22832 ft 419 kts 197°
2026-04-16 10:11 48.80489 8.35748 23173 ft 421 kts 197°
2026-04-16 10:11 48.77625 8.34760 23498 ft 423 kts 197°
2026-04-16 10:11 48.74749 8.33734 23804 ft 426 kts 198°
2026-04-16 10:12 48.71865 8.32680 24063 ft 428 kts 198°
2026-04-16 10:12 48.68962 8.31608 24334 ft 430 kts 198°
2026-04-16 10:12 48.66054 8.30534 24599 ft 431 kts 198°
2026-04-16 10:12 48.63128 8.29457 24874 ft 433 kts 198°
2026-04-16 10:13 48.60199 8.28385 25146 ft 435 kts 198°
2026-04-16 10:13 48.57244 8.27309 25398 ft 437 kts 198°
2026-04-16 10:13 48.54277 8.26232 25650 ft 439 kts 198°
2026-04-16 10:13 48.51304 8.25156 25903 ft 441 kts 198°
2026-04-16 10:14 48.48311 8.24075 26160 ft 443 kts 198°
2026-04-16 10:14 48.45304 8.22985 26417 ft 444 kts 198°
2026-04-16 10:14 48.42291 8.21886 26668 ft 446 kts 198°
2026-04-16 10:14 48.39269 8.20778 26913 ft 448 kts 198°
2026-04-16 10:15 48.36268 8.19680 27160 ft 450 kts 198°
2026-04-16 10:15 48.33220 8.18568 27372 ft 452 kts 198°
2026-04-16 10:15 48.30160 8.17454 27590 ft 454 kts 198°
2026-04-16 10:15 48.27086 8.16338 27817 ft 456 kts 198°
2026-04-16 10:16 48.24070 8.14931 28038 ft 453 kts 206°
2026-04-16 10:16 48.21221 8.12937 28253 ft 451 kts 211°
2026-04-16 10:16 48.18401 8.10836 28467 ft 453 kts 210°
2026-04-16 10:16 48.15569 8.08733 28699 ft 455 kts 210°
2026-04-16 10:17 48.12722 8.06625 28880 ft 457 kts 210°
2026-04-16 10:17 48.09865 8.04513 29092 ft 459 kts 210°
2026-04-16 10:17 48.06998 8.02398 29353 ft 459 kts 210°
2026-04-16 10:17 48.04133 8.00291 29697 ft 459 kts 210°
2026-04-16 10:18 48.01272 7.98193 30019 ft 458 kts 210°
2026-04-16 10:18 47.98419 7.96101 30308 ft 457 kts 210°
2026-04-16 10:18 47.95558 7.94003 30554 ft 457 kts 210°
2026-04-16 10:18 47.92703 7.91911 30767 ft 457 kts 210°
2026-04-16 10:19 47.89877 7.89845 30976 ft 458 kts 210°
2026-04-16 10:19 47.87017 7.87760 31234 ft 457 kts 210°
2026-04-16 10:19 47.84164 7.85683 31495 ft 457 kts 210°
2026-04-16 10:19 47.81310 7.83604 31739 ft 456 kts 210°
2026-04-16 10:20 47.78461 7.81529 31988 ft 456 kts 210°
2026-04-16 10:20 47.75612 7.79455 32224 ft 455 kts 210°
2026-04-16 10:20 47.72764 7.77385 32429 ft 455 kts 210°
2026-04-16 10:20 47.69918 7.75319 32656 ft 455 kts 210°
2026-04-16 10:21 47.67074 7.73260 32880 ft 455 kts 210°
2026-04-16 10:21 47.64224 7.71201 33114 ft 455 kts 210°
2026-04-16 10:21 47.61379 7.69149 33347 ft 454 kts 210°
2026-04-16 10:21 47.59497 7.67793 33501 ft 454 kts 210°
2026-04-16 10:22 47.55729 7.65082 33815 ft 454 kts 210°
2026-04-16 10:22 47.52889 7.63042 34009 ft 454 kts 210°
2026-04-16 10:22 47.50966 7.61660 34152 ft 454 kts 210°
2026-04-16 10:22 47.47201 7.58955 34411 ft 454 kts 210°
2026-04-16 10:23 47.45316 7.57599 34523 ft 454 kts 210°
2026-04-16 10:23 47.42479 7.55562 34714 ft 453 kts 210°
2026-04-16 10:23 47.39641 7.53526 34878 ft 453 kts 210°
2026-04-16 10:23 47.36800 7.51494 35046 ft 453 kts 210°
2026-04-16 10:24 47.33967 7.49473 35210 ft 453 kts 210°
2026-04-16 10:24 47.31129 7.47451 35251 ft 453 kts 210°
2026-04-16 10:24 47.25439 7.43401 35274 ft 456 kts 210°
2026-04-16 10:25 47.19777 7.39330 35276 ft 454 kts 213°
2026-04-16 10:25 47.14832 7.33780 35267 ft 444 kts 231°
2026-04-16 10:26 47.10955 7.26795 35274 ft 442 kts 236°
2026-04-16 10:26 47.07110 7.19728 35275 ft 442 kts 236°
2026-04-16 10:27 47.03260 7.12685 35274 ft 442 kts 236°
2026-04-16 10:27 46.99412 7.05644 35286 ft 443 kts 236°
2026-04-16 10:28 46.95560 6.98606 35259 ft 443 kts 235°
2026-04-16 10:28 46.91694 6.91577 35264 ft 443 kts 236°
2026-04-16 10:29 46.87826 6.84553 35267 ft 443 kts 236°
2026-04-16 10:29 46.83965 6.77577 35270 ft 443 kts 236°
2026-04-16 10:30 46.80084 6.70583 35270 ft 443 kts 236°
2026-04-16 10:30 46.76195 6.63588 35273 ft 443 kts 235°
2026-04-16 10:31 46.72310 6.56610 35275 ft 443 kts 235°
2026-04-16 10:31 46.68423 6.49652 35272 ft 443 kts 235°
2026-04-16 10:32 46.64530 6.42703 35251 ft 443 kts 235°
2026-04-16 10:32 46.60624 6.35736 35252 ft 444 kts 235°
2026-04-16 10:33 46.56706 6.28782 35252 ft 445 kts 235°
2026-04-16 10:33 46.52775 6.21826 35255 ft 445 kts 235°
2026-04-16 10:34 46.48843 6.14873 35261 ft 445 kts 235°
2026-04-16 10:34 46.44907 6.07932 35256 ft 445 kts 235°
2026-04-16 10:35 46.40990 6.01048 35237 ft 446 kts 235°
2026-04-16 10:35 46.37041 5.94119 35255 ft 446 kts 235°
2026-04-16 10:36 46.33081 5.87188 35255 ft 447 kts 235°
2026-04-16 10:36 46.29119 5.80264 35258 ft 447 kts 235°
2026-04-16 10:37 46.25148 5.73354 35256 ft 447 kts 235°
2026-04-16 10:37 46.21170 5.66450 35249 ft 447 kts 235°
2026-04-16 10:38 46.17183 5.59549 35245 ft 448 kts 234°
2026-04-16 10:38 46.13374 5.52489 35239 ft 444 kts 240°
2026-04-16 10:39 46.09871 5.45163 35244 ft 444 kts 240°
2026-04-16 10:39 46.06357 5.37855 35251 ft 444 kts 240°
2026-04-16 10:40 46.02835 5.30551 35245 ft 444 kts 240°
2026-04-16 10:40 45.99328 5.23294 35243 ft 444 kts 240°
2026-04-16 10:41 45.95798 5.15996 35245 ft 445 kts 240°
2026-04-16 10:41 45.92264 5.08695 35243 ft 444 kts 239°
2026-04-16 10:42 45.88723 5.01418 35269 ft 444 kts 239°
2026-04-16 10:42 45.85178 4.94165 35266 ft 444 kts 239°
2026-04-16 10:43 45.81624 4.86909 35268 ft 445 kts 239°
2026-04-16 10:43 45.78078 4.79695 35270 ft 445 kts 239°
2026-04-16 10:44 45.74514 4.72438 35267 ft 445 kts 239°
2026-04-16 10:44 45.70944 4.65183 35256 ft 445 kts 239°
2026-04-16 10:45 45.67373 4.57950 35265 ft 445 kts 239°
2026-04-16 10:45 45.63792 4.50728 35271 ft 445 kts 239°
2026-04-16 10:46 45.60226 4.43554 35275 ft 445 kts 239°
2026-04-16 10:46 45.56640 4.36348 35270 ft 445 kts 239°
2026-04-16 10:47 45.53055 4.29150 35270 ft 445 kts 239°
2026-04-16 10:47 45.49458 4.21958 35264 ft 445 kts 239°
2026-04-16 10:48 45.45858 4.14783 35271 ft 445 kts 239°
2026-04-16 10:48 45.42247 4.07609 35271 ft 445 kts 239°
2026-04-16 10:49 45.38634 4.00439 35266 ft 445 kts 238°
2026-04-16 10:49 45.35044 3.93336 35264 ft 445 kts 238°
2026-04-16 10:50 45.31418 3.86198 35268 ft 445 kts 238°
2026-04-16 10:50 45.27763 3.79023 35267 ft 452 kts 239°
2026-04-16 10:51 45.24067 3.71716 35251 ft 459 kts 240°
2026-04-16 10:51 45.20387 3.64234 35251 ft 466 kts 240°
2026-04-16 10:52 45.16682 3.56654 35254 ft 469 kts 240°
2026-04-16 10:52 45.12940 3.49071 35249 ft 470 kts 240°
2026-04-16 10:53 45.09200 3.41545 35253 ft 471 kts 240°
2026-04-16 10:53 45.05431 3.33972 35254 ft 471 kts 240°
2026-04-16 10:54 45.01648 3.26399 35245 ft 471 kts 240°
2026-04-16 10:54 44.97868 3.18837 35246 ft 471 kts 240°
2026-04-16 10:55 44.94084 3.11285 35257 ft 464 kts 238°
2026-04-16 10:55 44.92245 3.07634 35241 ft 450 kts 238°
2026-04-16 10:55 44.90436 3.04047 35242 ft 446 kts 238°
2026-04-16 10:56 44.86852 2.96935 35248 ft 444 kts 238°
2026-04-16 10:56 44.83307 2.89812 35251 ft 443 kts 240°
2026-04-16 10:57 44.79960 2.82533 35248 ft 442 kts 242°
2026-04-16 10:57 44.76700 2.75258 35259 ft 443 kts 241°
2026-04-16 10:58 44.73361 2.67968 35265 ft 443 kts 240°
2026-04-16 10:58 44.69979 2.60717 35264 ft 443 kts 240°
2026-04-16 10:59 44.66601 2.53471 35270 ft 443 kts 240°
2026-04-16 10:59 44.63233 2.46233 35276 ft 442 kts 240°
2026-04-16 11:00 44.59861 2.39015 35279 ft 442 kts 240°
2026-04-16 11:00 44.56479 2.31799 35271 ft 442 kts 240°
2026-04-16 11:01 44.53094 2.24593 35273 ft 442 kts 240°
2026-04-16 11:01 44.49703 2.17401 35274 ft 442 kts 240°
2026-04-16 11:02 44.46336 2.10260 35272 ft 442 kts 240°
2026-04-16 11:02 44.42948 2.03094 35266 ft 442 kts 240°
2026-04-16 11:03 44.39557 1.95937 35253 ft 441 kts 240°
2026-04-16 11:04 44.34456 1.85210 35245 ft 442 kts 239°
2026-04-16 11:04 44.31050 1.78071 35248 ft 441 kts 239°
2026-04-16 11:05 44.27659 1.70929 35258 ft 441 kts 240°
2026-04-16 11:05 44.24355 1.63724 35256 ft 440 kts 241°
2026-04-16 11:06 44.21103 1.56558 35249 ft 440 kts 241°
2026-04-16 11:06 44.17806 1.49371 35243 ft 440 kts 240°
2026-04-16 11:07 44.14482 1.42199 35245 ft 440 kts 240°
2026-04-16 11:07 44.11152 1.35047 35249 ft 440 kts 240°
2026-04-16 11:08 44.07832 1.27906 35251 ft 440 kts 240°
2026-04-16 11:08 44.04510 1.20768 35251 ft 440 kts 240°
2026-04-16 11:09 44.01181 1.13634 35237 ft 439 kts 240°
2026-04-16 11:09 43.97846 1.06522 35243 ft 439 kts 239°
2026-04-16 11:10 43.94511 0.99419 35241 ft 439 kts 239°
2026-04-16 11:10 43.91741 0.93530 35242 ft 439 kts 239°
2026-04-16 11:11 43.88296 0.86521 35244 ft 441 kts 232°
2026-04-16 11:11 43.84219 0.80157 35243 ft 442 kts 231°
2026-04-16 11:12 43.80108 0.73819 35233 ft 442 kts 231°
2026-04-16 11:12 43.75999 0.67500 35240 ft 441 kts 231°
2026-04-16 11:13 43.71919 0.61226 35250 ft 441 kts 231°
2026-04-16 11:13 43.67816 0.54917 35248 ft 441 kts 231°
2026-04-16 11:14 43.63709 0.48619 35253 ft 441 kts 231°
2026-04-16 11:14 43.59589 0.42330 35248 ft 441 kts 230°
2026-04-16 11:15 43.55470 0.36057 35244 ft 441 kts 230°
2026-04-16 11:15 43.51355 0.29783 35252 ft 441 kts 230°
2026-04-16 11:16 43.47242 0.23533 35253 ft 440 kts 230°
2026-04-16 11:16 43.43126 0.17299 35252 ft 440 kts 230°
2026-04-16 11:17 43.39034 0.11110 35245 ft 440 kts 230°
2026-04-16 11:17 43.34909 0.04883 35245 ft 441 kts 230°
2026-04-16 11:18 43.30782 -0.01339 35236 ft 440 kts 230°
2026-04-16 11:18 43.26651 -0.07543 35246 ft 440 kts 230°
2026-04-16 11:19 43.22523 -0.13724 35242 ft 439 kts 230°
2026-04-16 11:19 43.18386 -0.19900 35247 ft 442 kts 230°
2026-04-16 11:20 43.14183 -0.26176 35246 ft 450 kts 230°
2026-04-16 11:20 43.09930 -0.32516 35239 ft 452 kts 230°
2026-04-16 11:21 43.05693 -0.38807 35236 ft 452 kts 230°
2026-04-16 11:21 43.01428 -0.45138 35230 ft 452 kts 230°
2026-04-16 11:22 42.97165 -0.51456 35215 ft 453 kts 230°
2026-04-16 11:22 42.92888 -0.57765 35215 ft 453 kts 229°
2026-04-16 11:23 42.88920 -0.64380 35201 ft 449 kts 242°
2026-04-16 11:23 42.86658 -0.72220 35202 ft 443 kts 261°
2026-04-16 11:24 42.85569 -0.80489 35202 ft 443 kts 261°
2026-04-16 11:24 42.84472 -0.88752 35209 ft 443 kts 261°
2026-04-16 11:25 42.83375 -0.96967 35212 ft 443 kts 261°
2026-04-16 11:25 42.82273 -1.05242 35212 ft 444 kts 261°
2026-04-16 11:26 42.81164 -1.13518 35221 ft 444 kts 261°
2026-04-16 11:26 42.80049 -1.21785 35224 ft 443 kts 261°
2026-04-16 11:27 42.78923 -1.30043 35227 ft 443 kts 261°
2026-04-16 11:27 42.77805 -1.38237 35228 ft 443 kts 261°
2026-04-16 11:28 42.76675 -1.46475 35230 ft 443 kts 260°
2026-04-16 11:28 42.75535 -1.54717 35226 ft 443 kts 260°
2026-04-16 11:29 42.74384 -1.62947 35230 ft 442 kts 260°
2026-04-16 11:29 42.73156 -1.71151 35226 ft 442 kts 254°
2026-04-16 11:30 42.71375 -1.79097 35224 ft 442 kts 254°
2026-04-16 11:30 42.69574 -1.87093 35222 ft 442 kts 253°
2026-04-16 11:31 42.67767 -1.95090 35221 ft 442 kts 253°
2026-04-16 11:31 42.65954 -2.03078 35225 ft 442 kts 253°
2026-04-16 11:32 42.64132 -2.11057 35227 ft 442 kts 253°
2026-04-16 11:32 42.62294 -2.19039 35230 ft 442 kts 253°
2026-04-16 11:33 42.60393 -2.26926 35231 ft 442 kts 252°
2026-04-16 11:33 42.58444 -2.34838 35226 ft 442 kts 252°
2026-04-16 11:34 42.56497 -2.42740 35224 ft 441 kts 252°
2026-04-16 11:34 42.54567 -2.50638 35223 ft 441 kts 252°
2026-04-16 11:35 42.52642 -2.58536 35223 ft 441 kts 252°
2026-04-16 11:35 42.50699 -2.66442 35226 ft 442 kts 252°
2026-04-16 11:36 42.48743 -2.74333 35233 ft 441 kts 252°
2026-04-16 11:36 42.46789 -2.82200 35228 ft 441 kts 252°
2026-04-16 11:37 42.44697 -2.89956 35227 ft 441 kts 246°
2026-04-16 11:37 42.42132 -2.97492 35229 ft 441 kts 246°
2026-04-16 11:38 42.39565 -3.05017 35231 ft 441 kts 246°
2026-04-16 11:38 42.37001 -3.12538 35235 ft 440 kts 246°
2026-04-16 11:39 42.34439 -3.20044 35233 ft 439 kts 246°
2026-04-16 11:39 42.31864 -3.27534 35239 ft 439 kts 246°
2026-04-16 11:40 42.29282 -3.35003 35243 ft 439 kts 246°
2026-04-16 11:40 42.26714 -3.42437 35248 ft 439 kts 246°
2026-04-16 11:41 42.24140 -3.49898 35262 ft 438 kts 246°
2026-04-16 11:41 42.21561 -3.57338 35264 ft 437 kts 246°
2026-04-16 11:42 42.18981 -3.64756 35263 ft 437 kts 246°
2026-04-16 11:42 42.16407 -3.72125 35243 ft 436 kts 246°
2026-04-16 11:43 42.13819 -3.79515 35239 ft 436 kts 246°
2026-04-16 11:43 42.11231 -3.86901 35243 ft 435 kts 246°
2026-04-16 11:44 42.08643 -3.94269 35246 ft 435 kts 246°
2026-04-16 11:44 42.06046 -4.01619 35245 ft 435 kts 246°
2026-04-16 11:45 42.03444 -4.08962 35238 ft 435 kts 246°
2026-04-16 11:45 42.00790 -4.16271 35237 ft 435 kts 245°
2026-04-16 11:46 41.98041 -4.23450 35236 ft 435 kts 245°
2026-04-16 11:46 41.95256 -4.30670 35235 ft 435 kts 245°
2026-04-16 11:47 41.92490 -4.37891 35237 ft 435 kts 245°
2026-04-16 11:47 41.89730 -4.45112 35224 ft 435 kts 245°
2026-04-16 11:48 41.86960 -4.52332 35220 ft 435 kts 245°
2026-04-16 11:48 41.84183 -4.59545 35221 ft 435 kts 245°
2026-04-16 11:49 41.81402 -4.66765 35225 ft 436 kts 245°
2026-04-16 11:49 41.78634 -4.73936 35248 ft 436 kts 245°
2026-04-16 11:50 41.75841 -4.81153 35251 ft 436 kts 245°
2026-04-16 11:50 41.73042 -4.88361 35254 ft 436 kts 245°
2026-04-16 11:51 41.70231 -4.95563 35262 ft 436 kts 245°
2026-04-16 11:51 41.67424 -5.02764 35261 ft 436 kts 245°
2026-04-16 11:52 41.64618 -5.09949 35236 ft 436 kts 245°
2026-04-16 11:52 41.61793 -5.17135 35234 ft 437 kts 245°
2026-04-16 11:53 41.58967 -5.24322 35231 ft 437 kts 245°
2026-04-16 11:53 41.56157 -5.31467 35228 ft 437 kts 245°
2026-04-16 11:54 41.53316 -5.38649 35230 ft 437 kts 245°
2026-04-16 11:54 41.50477 -5.45822 35231 ft 437 kts 245°
2026-04-16 11:55 41.47634 -5.52985 35231 ft 437 kts 245°
2026-04-16 11:55 41.44786 -5.60144 35229 ft 437 kts 245°
2026-04-16 11:56 41.41928 -5.67295 35208 ft 437 kts 245°
2026-04-16 11:56 41.39069 -5.74429 35213 ft 436 kts 245°
2026-04-16 11:57 41.36210 -5.81554 35215 ft 436 kts 245°
2026-04-16 11:57 41.33345 -5.88666 35216 ft 435 kts 245°
2026-04-16 11:58 41.30072 -5.95382 35212 ft 440 kts 232°
2026-04-16 11:58 41.26008 -6.01481 35206 ft 440 kts 232°
2026-04-16 11:59 41.21926 -6.07545 35204 ft 440 kts 232°
2026-04-16 11:59 41.17834 -6.13607 35193 ft 440 kts 231°
2026-04-16 12:00 41.13757 -6.19656 35192 ft 440 kts 231°
2026-04-16 12:00 41.09670 -6.25715 35193 ft 440 kts 231°
2026-04-16 12:01 41.05589 -6.31752 35194 ft 440 kts 231°
2026-04-16 12:01 41.01490 -6.37785 35194 ft 440 kts 231°
2026-04-16 12:02 40.95369 -6.46789 35188 ft 440 kts 231°
2026-04-16 12:02 40.91274 -6.52819 35180 ft 441 kts 231°
2026-04-16 12:03 40.87862 -6.57825 35176 ft 441 kts 231°
2026-04-16 12:03 40.83747 -6.63842 35181 ft 441 kts 231°
2026-04-16 12:04 40.79621 -6.69851 35186 ft 441 kts 231°
2026-04-16 12:04 40.75495 -6.75856 35189 ft 441 kts 231°
2026-04-16 12:05 40.71368 -6.81852 35193 ft 442 kts 231°
2026-04-16 12:05 40.67244 -6.87844 35192 ft 441 kts 230°
2026-04-16 12:06 40.63113 -6.93826 35200 ft 441 kts 230°
2026-04-16 12:06 40.58984 -6.99797 35212 ft 441 kts 230°
2026-04-16 12:07 40.54883 -7.05710 35210 ft 440 kts 230°
2026-04-16 12:07 40.50755 -7.11651 35208 ft 440 kts 230°
2026-04-16 12:08 40.46620 -7.17579 35214 ft 440 kts 230°
2026-04-16 12:08 40.42483 -7.23508 35207 ft 439 kts 230°
2026-04-16 12:09 40.38357 -7.29420 35219 ft 439 kts 230°
2026-04-16 12:09 40.34228 -7.35317 35224 ft 439 kts 230°
2026-04-16 12:10 40.30104 -7.41205 35221 ft 438 kts 230°
2026-04-16 12:10 40.25968 -7.47083 35221 ft 438 kts 229°
2026-04-16 12:11 40.21834 -7.52945 35206 ft 438 kts 229°
2026-04-16 12:11 40.17714 -7.58775 35220 ft 439 kts 229°
2026-04-16 12:12 40.13565 -7.64646 35218 ft 439 kts 229°
2026-04-16 12:12 40.09418 -7.70513 35225 ft 439 kts 229°
2026-04-16 12:13 40.05265 -7.76360 35223 ft 439 kts 229°
2026-04-16 12:13 40.01144 -7.82151 35228 ft 438 kts 229°
2026-04-16 12:14 39.96986 -7.87986 35219 ft 438 kts 229°
2026-04-16 12:14 39.92826 -7.93808 35214 ft 439 kts 229°
2026-04-16 12:15 39.88667 -7.99632 35218 ft 439 kts 229°
2026-04-16 12:15 39.84496 -8.05451 35227 ft 439 kts 229°
2026-04-16 12:16 39.80325 -8.11263 35219 ft 439 kts 229°
2026-04-16 12:16 39.76148 -8.17066 35225 ft 439 kts 228°
2026-04-16 12:17 39.71994 -8.22826 35214 ft 439 kts 228°
2026-04-16 12:17 39.67818 -8.28611 35211 ft 439 kts 228°
2026-04-16 12:18 39.63634 -8.34402 35220 ft 440 kts 228°
2026-04-16 12:18 39.59442 -8.40188 35223 ft 439 kts 228°
2026-04-16 12:19 39.55249 -8.45955 35223 ft 439 kts 228°
2026-04-16 12:19 39.51065 -8.51705 35229 ft 439 kts 228°
2026-04-16 12:20 39.46877 -8.57457 35226 ft 438 kts 228°
2026-04-16 12:20 39.42707 -8.63167 35223 ft 439 kts 227°
2026-04-16 12:21 39.38515 -8.68898 35220 ft 439 kts 227°
2026-04-16 12:21 39.34310 -8.74635 35230 ft 439 kts 227°
2026-04-16 12:22 39.30104 -8.80347 35236 ft 439 kts 227°
2026-04-16 12:22 39.25902 -8.86054 35239 ft 438 kts 227°
2026-04-16 12:23 39.21701 -8.91756 35224 ft 439 kts 227°
2026-04-16 12:23 39.17516 -8.97423 35229 ft 439 kts 227°
2026-04-16 12:24 39.13303 -9.03125 35231 ft 440 kts 227°
2026-04-16 12:24 39.09072 -9.08836 35229 ft 440 kts 227°
2026-04-16 12:25 39.04846 -9.14532 35238 ft 439 kts 227°
2026-04-16 12:25 39.00616 -9.20218 35232 ft 439 kts 227°
2026-04-16 12:26 38.96386 -9.25893 35222 ft 440 kts 226°
2026-04-16 12:26 38.92143 -9.31565 35216 ft 441 kts 226°
2026-04-16 12:27 38.87892 -9.37237 35221 ft 441 kts 226°
2026-04-16 12:27 38.83635 -9.42913 35242 ft 441 kts 226°
2026-04-16 12:28 38.79374 -9.48582 35250 ft 441 kts 226°
2026-04-16 12:28 38.75142 -9.54212 35254 ft 441 kts 226°
2026-04-16 12:29 38.70879 -9.59877 35248 ft 442 kts 226°
2026-04-16 12:29 38.66606 -9.65537 35249 ft 442 kts 226°
2026-04-16 12:30 38.62328 -9.71186 35254 ft 442 kts 226°
2026-04-16 12:30 38.58041 -9.76836 35256 ft 442 kts 226°
2026-04-16 12:31 38.53761 -9.82482 35259 ft 442 kts 226°
2026-04-16 12:31 38.49475 -9.88112 35261 ft 442 kts 225°
2026-04-16 12:32 38.45192 -9.93736 35250 ft 442 kts 225°
2026-04-16 12:32 38.40909 -9.99357 35247 ft 442 kts 225°
2026-04-16 12:33 38.36646 -10.04929 35249 ft 442 kts 225°
2026-04-16 12:33 38.32349 -10.10538 35244 ft 442 kts 225°
2026-04-16 12:34 38.28045 -10.16142 35246 ft 443 kts 225°
2026-04-16 12:34 38.23737 -10.21746 35254 ft 443 kts 225°
2026-04-16 12:35 38.19433 -10.27338 35242 ft 442 kts 225°
2026-04-16 12:35 38.15113 -10.32934 35244 ft 443 kts 225°
2026-04-16 12:36 38.10790 -10.38524 35246 ft 443 kts 225°
2026-04-16 12:36 38.06484 -10.44079 35255 ft 444 kts 225°
2026-04-16 12:37 38.02154 -10.49658 35255 ft 444 kts 225°
2026-04-16 12:37 37.97817 -10.55241 35254 ft 444 kts 225°
2026-04-16 12:38 37.93480 -10.60816 35270 ft 444 kts 225°
2026-04-16 12:38 37.89146 -10.66383 35262 ft 444 kts 225°
2026-04-16 12:39 37.84804 -10.71943 35262 ft 444 kts 225°
2026-04-16 12:39 37.80482 -10.77455 35261 ft 444 kts 225°
2026-04-16 12:40 37.76139 -10.82986 35260 ft 443 kts 225°
2026-04-16 12:40 37.71792 -10.88514 35262 ft 443 kts 225°
2026-04-16 12:41 37.67449 -10.94041 35257 ft 443 kts 225°
2026-04-16 12:41 37.63089 -10.99560 35257 ft 444 kts 224°
2026-04-16 12:42 37.58723 -11.05068 35256 ft 444 kts 224°
2026-04-16 12:42 37.54367 -11.10576 35257 ft 444 kts 225°
2026-04-16 12:43 37.50038 -11.16068 35256 ft 444 kts 225°
2026-04-16 12:43 37.45670 -11.21576 35255 ft 444 kts 224°
2026-04-16 12:44 37.41298 -11.27064 35251 ft 444 kts 224°
2026-04-16 12:44 37.36920 -11.32557 35258 ft 444 kts 224°
2026-04-16 12:45 37.32532 -11.38051 35256 ft 445 kts 224°
2026-04-16 12:45 37.28142 -11.43536 35258 ft 445 kts 224°
2026-04-16 12:46 37.23776 -11.48988 35260 ft 445 kts 224°
2026-04-16 12:46 37.19379 -11.54474 35261 ft 445 kts 224°
2026-04-16 12:47 37.14983 -11.59952 35264 ft 445 kts 224°
2026-04-16 12:47 37.10577 -11.65418 35254 ft 446 kts 224°
2026-04-16 12:48 37.06169 -11.70885 35252 ft 446 kts 224°
2026-04-16 12:48 37.01777 -11.76314 35251 ft 446 kts 224°
2026-04-16 12:49 36.97358 -11.81772 35256 ft 447 kts 224°
2026-04-16 12:49 36.92937 -11.87230 35256 ft 447 kts 224°
2026-04-16 12:50 36.88519 -11.92682 35264 ft 446 kts 224°
2026-04-16 12:50 36.84091 -11.98124 35252 ft 446 kts 223°
2026-04-16 12:51 36.79662 -12.03548 35243 ft 446 kts 223°
2026-04-16 12:51 36.75232 -12.08978 35247 ft 446 kts 224°
2026-04-16 12:52 36.70797 -12.14404 35243 ft 447 kts 224°
2026-04-16 12:52 36.66387 -12.19792 35250 ft 447 kts 224°
2026-04-16 12:53 36.61938 -12.25219 35255 ft 448 kts 223°
2026-04-16 12:53 36.57483 -12.30646 35249 ft 448 kts 223°
2026-04-16 12:54 36.53776 -12.35148 35254 ft 448 kts 223°
2026-04-16 12:54 36.49319 -12.40550 35253 ft 448 kts 223°
2026-04-16 12:55 36.44848 -12.45959 35257 ft 448 kts 223°
2026-04-16 12:55 36.40377 -12.51378 35261 ft 448 kts 223°
2026-04-16 12:56 36.35907 -12.56768 35255 ft 448 kts 223°
2026-04-16 12:56 36.31458 -12.62117 35249 ft 448 kts 223°
2026-04-16 12:57 36.26977 -12.67507 35249 ft 448 kts 223°
2026-04-16 12:57 36.22493 -12.72890 35247 ft 448 kts 223°
2026-04-16 12:58 36.18008 -12.78265 35253 ft 448 kts 223°
2026-04-16 12:58 36.13525 -12.83635 35248 ft 449 kts 223°
2026-04-16 12:59 36.09065 -12.88966 35251 ft 449 kts 223°
2026-04-16 13:00 36.02324 -12.96999 35246 ft 449 kts 223°
2026-04-16 13:00 35.97815 -13.02354 35254 ft 449 kts 223°
2026-04-16 13:01 35.93312 -13.07713 35255 ft 450 kts 223°
2026-04-16 13:01 35.88806 -13.13064 35247 ft 450 kts 223°
2026-04-16 13:02 35.84293 -13.18420 35251 ft 450 kts 223°
2026-04-16 13:02 35.79769 -13.23760 35251 ft 450 kts 223°
2026-04-16 13:03 35.75267 -13.29048 35245 ft 450 kts 223°
2026-04-16 13:03 35.70730 -13.34384 35231 ft 451 kts 224°
2026-04-16 13:04 35.66195 -13.39742 35232 ft 452 kts 224°
2026-04-16 13:04 35.61641 -13.45098 35232 ft 453 kts 223°
2026-04-16 13:05 35.57074 -13.50449 35243 ft 454 kts 224°
2026-04-16 13:05 35.52496 -13.55798 35254 ft 454 kts 224°
2026-04-16 13:06 35.47955 -13.61096 35258 ft 453 kts 224°
2026-04-16 13:06 35.43377 -13.66424 35241 ft 454 kts 224°
2026-04-16 13:07 35.38795 -13.71761 35233 ft 455 kts 224°
2026-04-16 13:07 35.34206 -13.77104 35234 ft 455 kts 224°
2026-04-16 13:08 35.29620 -13.82439 35241 ft 455 kts 224°
2026-04-16 13:08 35.25015 -13.87763 35244 ft 455 kts 224°
2026-04-16 13:09 35.20421 -13.93070 35253 ft 454 kts 224°
2026-04-16 13:09 35.15826 -13.98372 35256 ft 453 kts 224°
2026-04-16 13:10 35.11266 -14.03638 35250 ft 453 kts 224°
2026-04-16 13:10 35.06675 -14.08924 35252 ft 453 kts 224°
2026-04-16 13:11 35.02089 -14.14195 35248 ft 452 kts 224°
2026-04-16 13:11 34.97502 -14.19454 35243 ft 452 kts 224°
2026-04-16 13:12 34.92915 -14.24704 35252 ft 452 kts 224°
2026-04-16 13:12 34.88336 -14.29943 35250 ft 452 kts 224°
2026-04-16 13:13 34.83784 -14.35153 35249 ft 452 kts 224°
2026-04-16 13:13 34.79204 -14.40383 35251 ft 451 kts 224°
2026-04-16 13:14 34.74609 -14.45602 35244 ft 452 kts 224°
2026-04-16 13:14 34.70017 -14.50813 35245 ft 452 kts 224°
2026-04-16 13:15 34.65428 -14.56023 35245 ft 452 kts 224°
2026-04-16 13:15 34.60839 -14.61230 35240 ft 451 kts 224°
2026-04-16 13:16 34.56243 -14.66428 35246 ft 451 kts 224°
2026-04-16 13:16 34.51647 -14.71611 35239 ft 451 kts 224°
2026-04-16 13:17 34.47076 -14.76766 35243 ft 452 kts 224°
2026-04-16 13:17 34.42478 -14.81955 35245 ft 452 kts 224°
2026-04-16 13:18 34.37863 -14.87140 35247 ft 452 kts 224°
2026-04-16 13:18 34.33253 -14.92303 35246 ft 451 kts 224°
2026-04-16 13:19 34.28639 -14.97466 35246 ft 451 kts 224°
2026-04-16 13:19 34.24061 -15.02591 35247 ft 451 kts 224°
2026-04-16 13:20 34.19461 -15.07728 35240 ft 450 kts 224°
2026-04-16 13:20 34.14856 -15.12860 35240 ft 450 kts 224°
2026-04-16 13:21 34.10261 -15.17986 35238 ft 450 kts 224°
2026-04-16 13:21 34.05661 -15.23104 35241 ft 450 kts 224°
2026-04-16 13:21 34.03361 -15.25652 34929 ft 448 kts 224°
2026-04-16 13:22 34.01075 -15.28183 34471 ft 443 kts 224°
2026-04-16 13:22 33.98812 -15.30687 34238 ft 443 kts 224°
2026-04-16 13:22 33.96532 -15.33216 33972 ft 445 kts 224°
2026-04-16 13:22 33.94242 -15.35756 33429 ft 449 kts 224°
2026-04-16 13:23 33.91974 -15.38267 32928 ft 448 kts 224°
2026-04-16 13:23 33.89675 -15.40808 32368 ft 450 kts 224°
2026-04-16 13:23 33.87363 -15.43359 31816 ft 451 kts 224°
2026-04-16 13:23 33.85046 -15.45915 31256 ft 453 kts 224°
2026-04-16 13:24 33.82717 -15.48481 30712 ft 455 kts 224°
2026-04-16 13:24 33.80375 -15.51061 30128 ft 456 kts 224°
2026-04-16 13:24 33.78040 -15.53632 29552 ft 454 kts 224°
2026-04-16 13:24 33.75717 -15.56187 29012 ft 450 kts 224°
2026-04-16 13:25 33.73422 -15.58712 28458 ft 446 kts 223°
2026-04-16 13:25 33.71140 -15.61222 27941 ft 443 kts 223°
2026-04-16 13:25 33.68880 -15.63706 27409 ft 438 kts 223°
2026-04-16 13:25 33.66632 -15.66175 26917 ft 435 kts 223°
2026-04-16 13:26 33.64413 -15.68609 26407 ft 430 kts 223°
2026-04-16 13:26 33.62238 -15.70993 25932 ft 426 kts 223°
2026-04-16 13:26 33.60048 -15.73390 25452 ft 424 kts 222°
2026-04-16 13:26 33.57876 -15.75763 24985 ft 419 kts 222°
2026-04-16 13:27 33.55725 -15.78112 24523 ft 417 kts 222°
2026-04-16 13:27 33.53605 -15.80484 24048 ft 415 kts 223°
2026-04-16 13:27 33.51538 -15.82884 23540 ft 412 kts 224°
2026-04-16 13:27 33.49533 -15.85266 23050 ft 410 kts 224°
2026-04-16 13:28 33.47518 -15.87674 22587 ft 407 kts 224°
2026-04-16 13:28 33.45519 -15.90054 22118 ft 404 kts 224°
2026-04-16 13:28 33.43524 -15.92413 21642 ft 402 kts 224°
2026-04-16 13:28 33.41539 -15.94744 21159 ft 398 kts 223°
2026-04-16 13:29 33.39568 -15.97049 20697 ft 395 kts 224°
2026-04-16 13:29 33.37600 -15.99339 20225 ft 393 kts 223°
2026-04-16 13:29 33.35647 -16.01607 19762 ft 390 kts 223°
2026-04-16 13:29 33.33712 -16.03857 19292 ft 387 kts 224°
2026-04-16 13:30 33.31786 -16.06098 18836 ft 386 kts 224°
2026-04-16 13:30 33.29872 -16.08330 18358 ft 383 kts 224°
2026-04-16 13:30 33.27978 -16.10542 17886 ft 380 kts 224°
2026-04-16 13:30 33.26112 -16.12718 17445 ft 379 kts 224°
2026-04-16 13:31 33.24230 -16.14913 17007 ft 376 kts 223°
2026-04-16 13:31 33.22360 -16.17082 16698 ft 375 kts 223°
2026-04-16 13:31 33.20484 -16.19234 16267 ft 374 kts 223°
2026-04-16 13:31 33.18608 -16.21372 15837 ft 371 kts 222°
2026-04-16 13:32 33.16742 -16.23494 15393 ft 369 kts 223°
2026-04-16 13:32 33.14889 -16.25606 14968 ft 369 kts 223°
2026-04-16 13:32 33.13037 -16.27720 14548 ft 367 kts 222°
2026-04-16 13:32 33.11210 -16.29809 14123 ft 361 kts 223°
2026-04-16 13:33 33.09398 -16.31880 13675 ft 361 kts 223°
2026-04-16 13:33 33.07588 -16.33946 13202 ft 359 kts 222°
2026-04-16 13:33 33.05788 -16.35997 12753 ft 357 kts 222°
2026-04-16 13:33 33.03995 -16.38037 12293 ft 356 kts 222°
2026-04-16 13:34 33.02199 -16.40077 11852 ft 355 kts 221°
2026-04-16 13:34 33.00414 -16.42107 11268 ft 352 kts 221°
2026-04-16 13:34 32.98694 -16.44065 10765 ft 342 kts 221°
2026-04-16 13:34 32.96999 -16.45995 10291 ft 332 kts 222°
2026-04-16 13:35 32.95365 -16.47854 9801 ft 316 kts 221°
2026-04-16 13:35 32.93815 -16.49617 9313 ft 300 kts 221°
2026-04-16 13:35 32.92344 -16.51290 8832 ft 286 kts 221°
2026-04-16 13:35 32.90934 -16.52886 8356 ft 274 kts 221°
2026-04-16 13:36 32.89579 -16.54418 7898 ft 264 kts 221°
2026-04-16 13:36 32.88259 -16.55908 7381 ft 260 kts 220°
2026-04-16 13:36 32.86940 -16.57396 6837 ft 262 kts 221°
2026-04-16 13:36 32.85620 -16.58879 6291 ft 259 kts 219°
2026-04-16 13:37 32.84190 -16.60141 5737 ft 254 kts 212°
2026-04-16 13:37 32.82741 -16.61338 5193 ft 253 kts 212°
2026-04-16 13:37 32.81304 -16.62528 4646 ft 250 kts 212°
2026-04-16 13:37 32.79890 -16.63700 4116 ft 246 kts 212°
2026-04-16 13:38 32.78490 -16.64859 3576 ft 244 kts 213°
2026-04-16 13:38 32.77107 -16.66003 3066 ft 241 kts 213°
2026-04-16 13:38 32.75755 -16.67119 2551 ft 239 kts 214°
2026-04-16 13:38 32.74404 -16.68232 2066 ft 233 kts 214°
2026-04-16 13:39 32.73121 -16.69291 1800 ft 215 kts 214°
2026-04-16 13:39 32.71917 -16.70287 1589 ft 206 kts 214°
2026-04-16 13:39 32.70770 -16.71238 1379 ft 197 kts 213°
2026-04-16 13:39 32.69639 -16.72173 1200 ft 198 kts 214°
2026-04-16 13:40 32.68493 -16.73097 1006 ft 198 kts 213°
2026-04-16 13:40 32.67365 -16.73992 986 ft 191 kts 213°
2026-04-16 13:40 32.66271 -16.74884 981 ft 190 kts 216°
2026-04-16 13:40 32.65229 -16.75743 956 ft 177 kts 213°
2026-04-16 13:41 32.64261 -16.76574 926 ft 173 kts 221°
2026-04-16 13:41 32.63672 -16.77767 874 ft 167 kts 265°
2026-04-16 13:41 32.63957 -16.79010 865 ft 153 kts 314°
2026-04-16 13:41 32.64761 -16.79788 843 ft 148 kts 335°
2026-04-16 13:42 32.65664 -16.80341 794 ft 144 kts 342°
2026-04-16 13:42 32.66636 -16.80526 749 ft 143 kts
2026-04-16 13:42 32.67537 -16.80063 581 ft 142 kts 39°
2026-04-16 13:42 32.68241 -16.79248 384 ft 140 kts 45°
2026-04-16 13:43 32.68935 -16.78436 219 ft 140 kts 43°
2026-04-16 13:43 32.69577 -16.77698 176 ft 101 kts 44°
2026-04-16 13:43 32.69879 -16.77343 176 ft 31 kts 46°
2026-04-16 13:43 32.69956 -16.77241 176 ft 13 kts 63°
2026-04-16 13:44 32.69938 -16.77188 176 ft 11 kts 152°
2026-04-16 13:44 32.69860 -16.77180 176 ft 12 kts 183°
2026-04-16 13:44 32.69795 -16.77232 176 ft 11 kts 225°
2026-04-16 13:44 32.69755 -16.77280 176 ft 7 kts 225°
2026-04-16 13:45 32.69722 -16.77320 176 ft 8 kts 225°
2026-04-16 13:45 32.69679 -16.77371 176 ft 9 kts 225°
2026-04-16 13:45 32.69635 -16.77426 176 ft 10 kts 226°
2026-04-16 13:45 32.69587 -16.77488 176 ft 11 kts 227°
2026-04-16 13:46 32.69538 -16.77551 176 ft 10 kts 227°
2026-04-16 13:46 32.69492 -16.77599 176 ft 7 kts 187°
2026-04-16 13:46 32.69453 -16.77572 176 ft 5 kts 138°
2026-04-16 13:46 32.69439 -16.77558 176 ft 1 kts 139°
2026-04-16 13:47 32.69439 -16.77557 176 ft 0 kts 139°